Regional Weather Roundup
Issued by NWS New Orleans/Baton Rouge, LA

Home | Current Version | Previous Version | Text Only | Print | Product List | Glossary On
Versions: 1 2 3 4 5 6 7 8 9 10 11 12 13 14 15 16 17 18 19 20 21 22 23 24 25 26 27
000
ASUS44 KLIX 011211
RWRLIX
NEW ORLEANS REGIONAL WEATHER ROUNDUP
NATIONAL WEATHER SERVICE NEW ORLEANS LA
700 AM CDT SAT OCT 01 2016

NOTE: "FAIR" INDICATES FEW OR NO CLOUDS BELOW 12,000 FEET WITH NO
      SIGNIFICANT WEATHER AND/OR OBSTRUCTIONS TO VISIBILITY.
      SKY/WX - SKY CONDITION AND SIGNIFICANT WEATHER.
      TMP - AIR TEMPERATURE.     DP    - DEWPOINT TEMPERATURE.
      RH  - RELATIVE HUMIDITY.   PRES  - PRESSURE.
      HI  - HEAT INDEX.          WCI   - WIND CHILL INDEX.

*  THESE STATIONS ARE NOT NWS OR FAA STATIONS AND ARE NOT UNDER
   NWS QUALITY CONTROL.

LAZ038-040-048-061>063-065>067-069-011300-
SOUTHEAST LOUISIANA

CITY           SKY/WX    TMP DP  RH WIND       PRES   REMARKS
N.O. AUDUBON   NOT AVBL
N.O. INTL ARPT PTCLDY    67  61  81 CALM      30.07R
6HR MIN TEMP:  67; 6HR MAX TEMP:  71;

N.O. LAKEFRONT CLEAR     74  60  61 N7        30.07R
6HR MIN TEMP:  71; 6HR MAX TEMP:  76;

N.O. DOWNTOWN*   N/A     71  58  63 CALM      30.07R
6HR MIN TEMP:  71; 6HR MAX TEMP:  75;

RESERVE*         N/A     62  60  94 N5        30.07S
6HR MIN TEMP:  62; 6HR MAX TEMP:  64;

SLIDELL        CLEAR     57  56  96 CALM      30.07R
6HR MIN TEMP:  56; 6HR MAX TEMP:  61;

BATON ROUGE    CLEAR     58  56  93 CALM      30.08R
6HR MIN TEMP:  57; 6HR MAX TEMP:  61;

BOOTHVILLE     CLEAR     69  61  75 CALM      30.06R
6HR MIN TEMP:  67; 6HR MAX TEMP:  72;

BELLE CHASSE   CLEAR     60  59  96 CALM      30.06R
6HR MIN TEMP:  60; 6HR MAX TEMP:  62;

BOGALUSA*        N/A     55  52  90 CALM      30.10R
6HR MIN TEMP:  55; 6HR MAX TEMP:  59;

GALLIANO*      MOSUNNY  N/A N/A N/A CALM      30.06R
NEW ROADS*       N/A     55  55  98 MISG      30.09R FOG
6HR MIN TEMP:  55; 6HR MAX TEMP:  59;

GONZALES*        N/A     58  58 100 CALM      30.07S FOG
6HR MIN TEMP:  58; 6HR MAX TEMP:  60;

HAMMOND*       CLEAR     55  54  94 CALM      30.08S
HOUMA*         CLEAR     57  57 100 CALM      30.07S
PORT FOURCHON* SUNNY     73  63  68 N6        30.06R

$$

MSZ070-080>082-011300-
SOUTHERN MISSISSIPPI

CITY           SKY/WX    TMP DP  RH WIND       PRES   REMARKS
MCCOMB         CLEAR     57  54  89 N3        30.09R
6HR MIN TEMP:  57; 6HR MAX TEMP:  59;

GULFPORT       CLEAR     60  58  92 CALM      30.07R
6HR MIN TEMP:  60; 6HR MAX TEMP:  65;

BILOXI         CLEAR     62  59  91 N5        30.07R
6HR MIN TEMP:  62; 6HR MAX TEMP:  67;

PASCAGOULA     CLEAR     54  54 100 CALM      30.07R
6HR MIN TEMP:  54; 6HR MAX TEMP:  58;

STENNIS ARPT*  CLEAR     54  50  87 CALM      30.08

$$

COASTAL OBSERVATIONS
LAKE AND NEARSHORE STATIONS

STATION/POSITION TIME  TEMP    WIND        PRES    WAVE
                       AIR SEA DIR/SP/G            HT/PER
                 (UTC) (F)     (DEG/KT/KT) (MB)    (FT/S)
PASCAGOULA       1100   63      20/  4/  5 1017.0
WAVELAND YACHT   1100   67 78  330/  4/  4 1017.8
GRAND ISLE       1100   74 83   40/  6/  7 1017.4
SOUTHWEST PASS   1100           40/ 11/ 12   N/A
NEW CANAL        1100   71 81  210/  1/  1 1017.0
SHELL BEACH      1100   76 81   30/  5/  7 1017.7

OFFSHORE STATIONS

STATION/POSITION TIME  TEMP    WIND        PRES    WAVE
                       AIR SEA DIR/SP/G            HT/PER
                 (UTC) (F)     (DEG/KT/KT) (MB)    (FT/S)
64 S DAUPHIN ISL 1100   77 84   50/  4/  8 1016.8

$$





USA.gov is the U.S. government's official web portal to all federal, state and local government web resources and services.